When you browse on this site, cookies collect data to enhance your experience and personalize the content and advertising you see.
Visit our Privacy Policy to learn more. By continuing to use the site, you agree to this use of cookies and data.
  • In Hungary
  • List of Countries
  • For 7 days
  • Water Temperature
  • Satellite Maps
  • Weather Map
  • News
  • Weather Widgets
  • user-avatar
    Login

    Hourly Weather Ioannina

    Today, 18 November, Sunday

    Time Temperature Precipitation Wind Pressure Humidity
    00:00 +3°C° 1.5 mm 3 mps 686 mmHg 89%
    01:00 +4°C° 0 mm 2 mps 686 mmHg 89%
    02:00 +3°C° 2.7 mm 3 mps 686 mmHg 90%
    03:00 +3°C° 2.7 mm 3 mps 685 mmHg 90%
    04:00 +2°C° 2.7 mm 3 mps 685 mmHg 91%
    05:00 +2°C° 2.7 mm 3 mps 685 mmHg 91%
    06:00 +1°C° 2.7 mm 4 mps 684 mmHg 91%
    07:00 +1°C° 2.7 mm 4 mps 684 mmHg 91%
    08:00 +3°C° 2.1 mm 4 mps 684 mmHg 91%
    09:00 +3°C° 2.1 mm 3 mps 684 mmHg 90%
    10:00 +3°C° 2.1 mm 3 mps 683 mmHg 90%
    11:00 +3°C° 2.8 mm 3 mps 683 mmHg 91%
    12:00 +3°C° 2.8 mm 3 mps 682 mmHg 91%
    13:00 +3°C° 2.8 mm 3 mps 682 mmHg 92%
    14:00 +3°C° 3.7 mm 3 mps 681 mmHg 92%
    15:00 +3°C° 3.7 mm 3 mps 681 mmHg 93%
    16:00 +4°C° 3.7 mm 2 mps 681 mmHg 93%
    17:00 +4°C° 2.6 mm 2 mps 680 mmHg 93%
    18:00 +4°C° 2.6 mm 2 mps 680 mmHg 93%
    19:00 +4°C° 2.6 mm 2 mps 680 mmHg 93%
    20:00 +4°C° 1.3 mm 2 mps 680 mmHg 93%
    21:00 +4°C° 1.3 mm 2 mps 680 mmHg 93%
    22:00 +6°C° 1.3 mm 1 mps 681 mmHg 93%
    23:00 +6°C° 0.1 mm 1 mps 681 mmHg 93%

    Tomorrow, 19 November, Monday

    Time Temperature Precipitation Wind Pressure Humidity
    00:00 +6°C° 0.1 mm 1 mps 681 mmHg 93%
    01:00 +6°C° 0.1 mm 1 mps 681 mmHg 93%
    02:00 +6°C° 0 mm 1 mps 681 mmHg 93%
    03:00 +5°C° 0 mm 1 mps 681 mmHg 94%
    04:00 +5°C° 0 mm 1 mps 681 mmHg 94%
    05:00 +5°C° 0 mm 1 mps 681 mmHg 94%
    06:00 +5°C° 0 mm 1 mps 682 mmHg 94%
    07:00 +6°C° 0 mm 1 mps 682 mmHg 94%
    08:00 +7°C° 0 mm 1 mps 683 mmHg 89%
    09:00 +8°C° 0 mm 1 mps 683 mmHg 85%
    10:00 +9°C° 0 mm 1 mps 684 mmHg 80%
    11:00 +10°C° 0 mm 1 mps 684 mmHg 78%
    12:00 +9°C° 0 mm 2 mps 684 mmHg 75%
    13:00 +10°C° 0 mm 2 mps 684 mmHg 73%
    14:00 +9°C° 0 mm 2 mps 684 mmHg 77%
    15:00 +8°C° 0 mm 2 mps 684 mmHg 82%
    16:00 +8°C° 0 mm 2 mps 684 mmHg 86%
    17:00 +7°C° 0 mm 2 mps 685 mmHg 87%
    18:00 +7°C° 0 mm 2 mps 685 mmHg 87%
    19:00 +6°C° 0 mm 2 mps 685 mmHg 88%
    20:00 +6°C° 0 mm 2 mps 685 mmHg 86%
    21:00 +6°C° 0 mm 2 mps 685 mmHg 84%
    22:00 +7°C° 0 mm 2 mps 685 mmHg 81%
    23:00 +7°C° 0 mm 2 mps 685 mmHg 81%

    Day after tomorrow, 20 November, Tuesday

    Time Temperature Precipitation Wind Pressure Humidity
    00:00 +7°C° 0 mm 2 mps 685 mmHg 80%
    01:00 +7°C° 0 mm 2 mps 685 mmHg 79%
    02:00 +7°C° 0 mm 2 mps 685 mmHg 78%
    03:00 +7°C° 0 mm 2 mps 685 mmHg 77%
    04:00 +6°C° 0 mm 2 mps 685 mmHg 76%
    05:00 +6°C° 0 mm 2 mps 685 mmHg 75%
    06:00 +6°C° 0 mm 2 mps 685 mmHg 74%
    07:00 +7°C° 0 mm 2 mps 686 mmHg 73%
    08:00 +7°C° 0.8 mm 3 mps 686 mmHg 77%
    09:00 +8°C° 0.8 mm 3 mps 686 mmHg 82%
    10:00 +8°C° 0.8 mm 3 mps 686 mmHg 86%
    11:00 +9°C° 0.4 mm 3 mps 686 mmHg 85%
    12:00 +10°C° 0.4 mm 3 mps 686 mmHg 85%
    13:00 +11°C° 0.4 mm 3 mps 685 mmHg 85%
    14:00 +10°C° 0.3 mm 3 mps 685 mmHg 86%
    15:00 +10°C° 0.3 mm 3 mps 685 mmHg 87%
    16:00 +9°C° 0.3 mm 2 mps 685 mmHg 88%
    17:00 +9°C° 0.8 mm 2 mps 685 mmHg 89%
    18:00 +9°C° 0.8 mm 2 mps 685 mmHg 89%
    19:00 +8°C° 0.8 mm 2 mps 684 mmHg 90%
    20:00 +8°C° 0.5 mm 2 mps 684 mmHg 90%
    21:00 +8°C° 0.5 mm 2 mps 684 mmHg 89%
    22:00 +8°C° 0.5 mm 3 mps 684 mmHg 89%
    23:00 +8°C° 1.8 mm 3 mps 684 mmHg 90%

    21 November, Wednesday

    Time Temperature Precipitation Wind Pressure Humidity
    00:00 +8°C° 1.8 mm 3 mps 683 mmHg 92%
    01:00 +8°C° 1.8 mm 3 mps 683 mmHg 93%
    02:00 +8°C° 2.6 mm 3 mps 683 mmHg 94%
    03:00 +9°C° 2.6 mm 3 mps 682 mmHg 95%
    04:00 +9°C° 2.6 mm 3 mps 682 mmHg 97%
    05:00 +8°C° 1.3 mm 2 mps 682 mmHg 97%
    06:00 +8°C° 1.3 mm 2 mps 682 mmHg 97%
    07:00 +8°C° 1.3 mm 2 mps 682 mmHg 96%
    08:00 +9°C° 0.3 mm 2 mps 683 mmHg 92%
    09:00 +10°C° 0.3 mm 2 mps 683 mmHg 87%
    10:00 +12°C° 0.3 mm 2 mps 684 mmHg 82%
    11:00 +12°C° 0.3 mm 2 mps 684 mmHg 82%
    12:00 +12°C° 0.3 mm 2 mps 684 mmHg 82%
    13:00 +12°C° 0.3 mm 2 mps 684 mmHg 82%
    14:00 +10°C° 0.1 mm 2 mps 684 mmHg 85%
    15:00 +10°C° 0.1 mm 2 mps 684 mmHg 88%
    16:00 +11°C° 0.1 mm 1 mps 684 mmHg 90%
    17:00 +10°C° 0.1 mm 1 mps 684 mmHg 92%
    18:00 +10°C° 0.1 mm 1 mps 684 mmHg 93%
    19:00 +9°C° 0.1 mm 1 mps 685 mmHg 95%
    20:00 +9°C° 0 mm 1 mps 685 mmHg 95%
    21:00 +9°C° 0 mm 1 mps 685 mmHg 95%
    22:00 +8°C° 0 mm 1 mps 685 mmHg 95%
    23:00 +8°C° 0 mm 1 mps 685 mmHg 95%

    22 November, Thursday

    Time Temperature Precipitation Wind Pressure Humidity
    00:00 +8°C° 0 mm 1 mps 685 mmHg 95%
    01:00 +7°C° 0 mm 1 mps 685 mmHg 95%
    02:00 +7°C° 0 mm 1 mps 685 mmHg 95%
    03:00 +7°C° 0 mm 1 mps 685 mmHg 94%
    04:00 +7°C° 0 mm 1 mps 685 mmHg 93%
    05:00 +7°C° 0 mm 1 mps 686 mmHg 92%
    06:00 +7°C° 0 mm 1 mps 686 mmHg 90%
    07:00 +7°C° 0 mm 1 mps 686 mmHg 89%
    08:00 +9°C° 0 mm 1 mps 687 mmHg 85%
    09:00 +10°C° 0 mm 1 mps 687 mmHg 81%
    10:00 +12°C° 0 mm 1 mps 688 mmHg 77%
    11:00 +12°C° 0 mm 1 mps 688 mmHg 75%
    12:00 +13°C° 0 mm 1 mps 688 mmHg 73%
    13:00 +14°C° 0 mm 1 mps 688 mmHg 71%
    14:00 +13°C° 0 mm 1 mps 687 mmHg 75%
    15:00 +12°C° 0 mm 1 mps 687 mmHg 79%
    16:00 +11°C° 0 mm 1 mps 687 mmHg 83%
    17:00 +10°C° 0 mm 1 mps 688 mmHg 85%
    18:00 +9°C° 0 mm 1 mps 688 mmHg 87%
    19:00 +8°C° 0 mm 1 mps 688 mmHg 89%
    20:00 +8°C° 0 mm 1 mps 688 mmHg 89%
    21:00 +8°C° 0 mm 1 mps 689 mmHg 88%
    22:00 +8°C° 0 mm 1 mps 689 mmHg 88%
    23:00 +8°C° 0 mm 1 mps 689 mmHg 87%

    23 November, Friday

    Time Temperature Precipitation Wind Pressure Humidity
    00:00 +7°C° 0 mm 1 mps 689 mmHg 87%
    01:00 +7°C° 0 mm 1 mps 689 mmHg 86%
    02:00 +7°C° 0 mm 1 mps 689 mmHg 85%
    03:00 +7°C° 0 mm 1 mps 689 mmHg 85%
    04:00 +7°C° 0 mm 1 mps 689 mmHg 84%
    05:00 +6°C° 0 mm 1 mps 690 mmHg 84%
    06:00 +6°C° 0 mm 1 mps 690 mmHg 84%
    07:00 +6°C° 0 mm 1 mps 690 mmHg 84%
    08:00 +8°C° 0 mm 1 mps 691 mmHg 79%
    09:00 +10°C° 0 mm 1 mps 691 mmHg 75%
    10:00 +12°C° 0 mm 1 mps 692 mmHg 71%
    11:00 +12°C° 0 mm 1 mps 692 mmHg 69%
    12:00 +13°C° 0 mm 1 mps 692 mmHg 67%
    13:00 +13°C° 0 mm 1 mps 692 mmHg 65%
    14:00 +12°C° 0 mm 1 mps 691 mmHg 69%
    15:00 +11°C° 0 mm 1 mps 691 mmHg 73%
    16:00 +10°C° 0 mm 1 mps 691 mmHg 78%
    17:00 +10°C° 0 mm 1 mps 691 mmHg 80%
    18:00 +9°C° 0 mm 1 mps 691 mmHg 83%
    19:00 +8°C° 0 mm 1 mps 691 mmHg 86%
    20:00 +8°C° 0 mm 1 mps 691 mmHg 86%
    21:00 +8°C° 0 mm 1 mps 691 mmHg 87%
    22:00 +7°C° 0 mm 1 mps 691 mmHg 88%
    23:00 +7°C° 0 mm 1 mps 691 mmHg 88%
    Show more